Hourly Data Report for September 14, 2017

All times are specified in Local Standard Time (LST). Add 1 hour to adjust for Daylight Saving Time where and when it is observed.

CORAL HARBOUR A
NUNAVUT

64°11'36.000" N
83°21'34.000" W
62.20 m
2301002
71915
YZS

Download Data

Hourly Data (September 2017)
Hourly Data Report for September 14, 2017
Temp Definition
°C
Dew Point Temp Definition
°C
Rel Hum Definition
%
Wind Dir Definition
10's deg

Wind Spd Definition
km/h
Visibility Definition
km
Stn Press Definition
kPa
Hmdx Definition


Wind Chill Definition


Weather Definition


TIME
00:00 Legend Double Dagger 0.2 -3.1 78 1 46 24.1 100.29     LegendNANA
01:00 Legend Double Dagger 0.1 -3.0 80 1 39 24.1 100.34     Clear
02:00 Legend Double Dagger -0.4 -3.2 82 1 37 24.1 100.35   -8 LegendNANA
03:00 Legend Double Dagger -0.6 -3.3 82 35 41 24.1 100.33   -8 LegendNANA
04:00 Legend Double Dagger -1.1 -3.8 82 33 22 24.1 100.43   -7 Clear
05:00 Legend Double Dagger -1.2 -3.6 84 35 13 24.1 100.47   -5 LegendNANA
06:00 Legend Double Dagger -1.1 -3.5 84 35 23 24.1 100.45   -7 LegendNANA
07:00 Legend Double Dagger -0.4 -3.3 81 35 26 24.1 100.47   -7 Clear
08:00 Legend Double Dagger 0.6 -3.0 77 36 32 24.1 100.47     LegendNANA
09:00 Legend Double Dagger 1.9 -2.7 72 35 30 24.1 100.49     LegendNANA
10:00 Legend Double Dagger 2.7 -2.9 66 35 28 24.1 100.50     Clear
11:00 Legend Double Dagger 3.1 -2.3 68 1 35 24.1 100.45     LegendNANA
12:00 Legend Double Dagger 3.5 -2.2 67 1 35 24.1 100.45     LegendNANA
13:00 Legend Double Dagger 4.5 -2.3 61 35 27 24.1 100.47     Clear
14:00 Legend Double Dagger 4.9 -2.5 59 35 25 24.1 100.48     LegendNANA
15:00 Legend Double Dagger 4.8 -3.2 57 35 30 24.1 100.50     LegendNANA
16:00 Legend Double Dagger 4.0 -3.6 58 36 29 24.1 100.54     Clear
17:00 Legend Double Dagger 3.4 -2.9 64 36 25 24.1 100.57     LegendNANA
18:00 Legend Double Dagger 2.7 -3.3 65 1 23 24.1 100.58     LegendNANA
19:00 Legend Double Dagger 1.0 -3.4 73 1 13 24.1 100.60     Clear
20:00 Legend Double Dagger 0.0 -3.5 78 35 10 24.1 100.59   -3 LegendNANA
21:00 Legend Double Dagger -0.4 -3.2 81 35 13 24.1 100.59   -5 LegendNANA
22:00 Legend Double Dagger -1.1 -3.5 84 36 15 24.1 100.56   -6 Clear
23:00 Legend Double Dagger -1.8 -3.7 87 31 9 24.1 100.58   -5 LegendNANA

Notes on Data Quality.

Legend

  • E = Estimated
  • M = Missing
  • NA = Not Available
  • ‡ = Partner data that is not subject to review by the National Climate Archives
Date modified: